Time,TemperatureF,DewpointF,PressureIn,WindDirection,WindDirectionDegrees,WindSpeedMPH,WindSpeedGustMPH,Humidity,HourlyPrecipIn,Conditions,Clouds,dailyrainin,SoftwareType,DateUTC
2013-03-20 14:27:00,34.1,20.0,29.80,WSW,253,5.0,9.0,56,0.00,,,0.00,Wunderground v.1.15,2013-03-20 18:27:00,
2013-03-20 14:32:00,34.0,20.3,29.79,NW,307,5.0,7.0,57,0.00,,,0.00,Wunderground v.1.15,2013-03-20 18:32:00,
2013-03-20 14:38:00,33.6,20.0,29.79,NNW,330,6.0,8.0,57,0.00,,,0.00,Wunderground v.1.15,2013-03-20 18:38:00,
2013-03-20 14:43:00,33.6,20.0,29.78,WSW,256,5.0,6.0,57,0.00,,,0.00,Wunderground v.1.15,2013-03-20 18:43:00,
2013-03-20 14:49:00,33.5,20.3,29.78,WSW,237,5.0,7.0,58,0.00,,,0.00,Wunderground v.1.15,2013-03-20 18:49:00,
2013-03-20 14:54:00,33.4,21.0,29.78,NW,309,4.0,5.0,60,0.00,,,0.00,Wunderground v.1.15,2013-03-20 18:54:00,
2013-03-20 15:00:00,33.3,21.3,29.78,WSW,245,4.0,9.0,61,0.00,,,0.00,Wunderground v.1.15,2013-03-20 19:00:00,
2013-03-20 19:16:00,27.7,23.5,29.78,NNW,336,1.0,12.0,84,0.00,,,0.00,Wunderground v.1.15,2013-03-20 23:16:00,
2013-03-20 19:22:00,27.6,23.7,29.78,NNW,339,1.0,12.0,85,0.00,,,0.00,Wunderground v.1.15,2013-03-20 23:22:00,
2013-03-20 19:27:00,27.5,23.9,29.78,NNW,336,1.0,2.0,86,0.00,,,0.00,Wunderground v.1.15,2013-03-20 23:27:00,
2013-03-20 19:32:00,27.4,23.5,29.77,NNW,335,1.0,2.0,85,0.00,,,0.00,Wunderground v.1.15,2013-03-20 23:32:00,
2013-03-20 19:38:00,27.5,23.0,29.78,NNW,341,1.0,1.0,83,0.00,,,0.00,Wunderground v.1.15,2013-03-20 23:38:00,
2013-03-20 19:44:00,27.6,23.1,29.78,North,5,0.0,1.0,83,0.00,,,0.00,Wunderground v.1.15,2013-03-20 23:44:00,
2013-03-20 19:49:00,27.5,22.7,29.78,NNW,337,1.0,2.0,82,0.00,,,0.00,Wunderground v.1.15,2013-03-20 23:49:00,
2013-03-20 22:56:00,23.9,18.3,29.81,NNW,336,1.0,1.0,79,0.00,,,0.00,Wunderground v.1.15,2013-03-21 02:56:00,
2013-03-20 23:02:00,23.9,17.7,29.82,NNW,337,0.0,1.0,77,0.00,,,0.00,Wunderground v.1.15,2013-03-21 03:02:00,
2013-03-20 23:07:00,23.8,17.3,29.81,NNW,345,0.0,1.0,76,0.00,,,0.00,Wunderground v.1.15,2013-03-21 03:07:00,
2013-03-20 23:13:00,23.7,17.2,29.81,NNW,340,0.0,0.0,76,0.00,,,0.00,Wunderground v.1.15,2013-03-21 03:13:00,
2013-03-20 23:18:00,23.7,16.3,29.81,North,5,0.0,1.0,73,0.00,,,0.00,Wunderground v.1.15,2013-03-21 03:18:00,
2013-03-20 23:24:00,23.5,16.1,29.81,North,4,0.0,0.0,73,0.00,,,0.00,Wunderground v.1.15,2013-03-21 03:24:00,
2013-03-20 23:29:00,23.5,15.8,29.81,NW,320,1.0,2.0,72,0.00,,,0.00,Wunderground v.1.15,2013-03-21 03:29:00,
2013-03-20 23:34:00,23.5,15.5,29.81,NNW,338,1.0,1.0,71,0.00,,,0.00,Wunderground v.1.15,2013-03-21 03:34:00,
2013-03-20 23:40:00,23.4,15.7,29.81,NNW,343,0.0,0.0,72,0.00,,,0.00,Wunderground v.1.15,2013-03-21 03:40:00,